User: anonymous   Login
Location: Eaton Estates
(41.3089°N, 82.0057°W)
Time: 23:15:57
(UTC+00:00)
Language:

Cosmos 372 Rocket - Orbit

View from above orbital plane
View from above orbital plane
View from above satellite
View from above satellite

Ground track
Ground track

The orbit data is extracted from the following two-line orbital elements,

1 04589U 70086B   21269.42225659  .00000008  00000-0  10449-4 0  9992
2 04589  74.0594 308.3650 0019676 131.9007 228.3832 14.41655001671843
Epoch (UTC): 26 September 2021 10:08:02
Eccentricity: 0.0019676
inclination: 74.0594°
perigee height: 739 km
apogee height: 767 km
right ascension of ascending node: 308.3650°
argument of perigee: 131.9007°
revolutions per day: 14.41655001
mean anomaly at epoch: 228.3832°
orbit number at epoch: 67184

The dashed part of the orbit path shows where the satellite is in the earth's shadow,  

DLR